GW4179 Weather Reports


time (UTC)temp
C
wind
direction
speed
KPH
gust
KPH
rain 1hr
cm
rain 24hr
cm
rain mn
cm
humidity
%
barometer
mb
20260509222737 16 241 17.7 20.9 0.00 0.00 0.00 60
20260509222232 16 202 8.0 16.1 0.00 0.00 0.00 60
20260509221728 16 226 8.0 14.5 0.00 0.00 0.00 60
20260509221225 16 269 9.7 11.3 0.00 0.00 0.00 60
20260509220720 17 214 9.7 17.7 0.00 0.00 0.00 58
20260509220217 17 272 8.0 14.5 0.00 0.00 0.00 57
20260509215713 16 265 17.7 20.9 0.00 0.00 0.00 58
20260509215210 17 244 9.7 14.5 0.00 0.00 0.00 56
20260509214707 17 193 4.8 16.1 0.00 0.00 0.00 55
20260509214204 17 234 12.9 30.6 0.00 0.00 0.00 56
20260509213701 17 262 6.4 16.1 0.00 0.00 0.00 55
20260509213156 17 279 4.8 16.1 0.00 0.00 0.00 56
20260509212654 17 201 6.4 14.5 0.00 0.00 0.00 56
20260509212151 16 239 8.0 11.3 0.00 0.00 0.00 56
20260509211646 15 193 11.3 25.7 0.00 0.00 0.00 60
20260509211143 16 269 4.8 17.7 0.00 0.00 0.00 59
20260509210640 16 278 12.9 16.1 0.00 0.00 0.00 58
20260509210137 16 334 6.4 14.5 0.00 0.00 0.00 59
20260509205632 16 230 8.0 27.4 0.00 0.00 0.00 57
20260509205127 16 274 14.5 20.9 0.00 0.00 0.00 56
20260509204623 16 249 17.7 22.5 0.00 0.00 0.00 56
20260509204120 16 277 17.7 30.6 0.00 0.00 0.00 56
20260509203615 16 199 12.9 22.5 0.00 0.00 0.00 57
20260509203109 16 193 3.2 20.9 0.00 0.00 0.00 59
20260509202608 16 157 12.9 20.9 0.00 0.00 0.00 59
20260509202104 16 207 20.9 25.7 0.00 0.00 0.00 58
20260509201559 16 274 8.0 22.5 0.00 0.00 0.00 59
20260509201058 16 185 9.7 17.7 0.00 0.00 0.00 58
20260509200556 16 280 19.3 25.7 0.00 0.00 0.00 58
20260509200053 16 260 22.5 30.6 0.00 0.00 0.00 59
20260509195548 16 259 12.9 20.9 0.00 0.00 0.00 58
20260509195043 16 300 4.8 14.5 0.00 0.00 0.00 58
20260509194538 16 267 14.5 20.9 0.00 0.00 0.00 59
20260509194036 15 257 3.2 11.3 0.00 0.00 0.00 60
20260509193536 16 235 3.2 4.8 0.00 0.00 0.00 59
20260509193033 16 246 8.0 11.3 0.00 0.00 0.00 59
20260509192530 15 254 12.9 16.1 0.00 0.00 0.00 58
20260509192025 15 267 8.0 14.5 0.00 0.00 0.00 58
20260509191519 16 264 6.4 16.1 0.00 0.00 0.00 58
20260509191015 16 222 4.8 14.5 0.00 0.00 0.00 57
20260509190512 16 261 8.0 14.5 0.00 0.00 0.00 57
20260509190010 16 210 0.0 11.3 0.00 0.00 0.00 56
20260509185507 15 243 6.4 9.7 0.00 0.00 0.00 57
20260509185004 16 241 8.0 11.3 0.00 0.00 0.00 56
20260509184503 16 236 8.0 17.7 0.00 0.00 0.00 56
20260509183958 15 254 6.4 17.7 0.00 0.00 0.00 56
20260509183452 16 268 14.5 20.9 0.00 0.00 0.00 56
20260509182949 16 228 6.4 11.3 0.00 0.00 0.00 56
20260509182445 16 254 1.6 6.4 0.00 0.00 0.00 58
20260509181943 16 232 9.7 11.3 0.00 0.00 0.00 55
20260509181441 16 228 6.4 14.5 0.00 0.00 0.00 56
20260509180938 15 244 9.7 16.1 0.00 0.00 0.00 56
20260509180433 15 201 8.0 11.3 0.00 0.00 0.00 56
20260509175931 15 248 4.8 9.7 0.00 0.00 0.00 56
20260509175427 15 207 3.2 11.3 0.00 0.00 0.00 57
20260509174923 14 146 4.8 16.1 0.00 0.00 0.00 57
20260509174419 14 223 11.3 14.5 0.00 0.00 0.00 57
20260509173915 15 214 1.6 9.7 0.00 0.00 0.00 57
20260509173409 15 232 4.8 9.7 0.00 0.00 0.00 57
20260509172906 14 265 3.2 11.3 0.00 0.00 0.00 57
20260509172403 14 225 4.8 6.4 0.00 0.00 0.00 58
20260509171859 14 204 3.2 9.7 0.00 0.00 0.00 59
20260509171355 13 234 3.2 11.3 0.00 0.00 0.00 59
20260509170851 13 231 4.8 9.7 0.00 0.00 0.00 60
20260509170341 13 188 0.0 9.7 0.00 0.00 0.00 61
20260509165836 13 158 3.2 6.4 0.00 0.00 0.00 62
20260509165330 13 272 11.3 16.1 0.00 0.00 0.00 60
20260509164826 13 217 4.8 9.7 0.00 0.00 0.00 60
20260509164323 13 210 6.4 14.5 0.00 0.00 0.00 60
20260509163820 13 149 6.4 11.3 0.00 0.00 0.00 61
20260509163317 13 196 6.4 6.4 0.00 0.00 0.00 61
20260509162816 13 253 8.0 14.5 0.00 0.00 0.00 61
20260509162314 13 197 6.4 6.4 0.00 0.00 0.00 63
20260509161811 13 229 3.2 9.7 0.00 0.00 0.00 62
20260509161307 13 184 0.0 4.8 0.00 0.00 0.00 66
20260509160802 14 214 0.0 4.8 0.00 0.00 0.00 67
20260509160259 13 180 0.0 4.8 0.00 0.00 0.00 69
20260509155754 13 169 0.0 1.6 0.00 0.00 0.00 70
20260509155251 12 197 3.2 4.8 0.00 0.00 0.00 70
20260509154747 12 187 0.0 4.8 0.00 0.00 0.00 71
20260509154244 12 252 6.4 9.7 0.00 0.00 0.00 71
20260509153741 12 191 0.0 4.8 0.00 0.00 0.00 73
20260509153237 12 209 1.6 4.8 0.00 0.00 0.00 74
20260509152734 12 245 3.2 6.4 0.00 0.00 0.00 74
20260509152230 12 226 1.6 1.6 0.00 0.00 0.00 73
20260509151727 12 158 0.0 1.6 0.00 0.00 0.00 74
20260509151224 12 148 0.0 0.0 0.00 0.00 0.00 76
20260509150722 11 178 0.0 1.6 0.00 0.00 0.00 77
20260509150220 11 242 4.8 4.8 0.00 0.00 0.00 78
20260509145716 11 163 0.0 0.0 0.00 0.00 0.00 79
20260509145211 11 170 0.0 0.0 0.00 0.00 0.00 79
20260509144708 11 161 0.0 4.8 0.00 0.00 0.00 79
20260509144205 11 203 3.2 4.8 0.00 0.00 0.00 80
20260509143702 11 195 0.0 1.6 0.00 0.00 0.00 80
20260509143159 11 196 0.0 1.6 0.00 0.00 0.00 80
20260509142655 11 183 0.0 1.6 0.00 0.00 0.00 81
20260509142152 11 164 0.0 0.0 0.00 0.00 0.00 81
20260509141647 11 164 0.0 1.6 0.00 0.00 0.00 81
20260509141144 10 196 1.6 1.6 0.00 0.00 0.00 82
20260509140641 10 221 1.6 1.6 0.00 0.00 0.00 83
20260509140139 10 227 1.6 4.8 0.00 0.00 0.00 84
20260509135636 10 237 4.8 4.8 0.00 0.00 0.00 83
20260509135134 10 212 3.2 6.4 0.00 0.00 0.00 83
20260509134630 10 247 4.8 4.8 0.00 0.00 0.00 84
20260509134128 10 228 3.2 6.4 0.00 0.00 0.00 84
20260509133625 10 202 0.0 4.8 0.00 0.00 0.00 84
20260509133122 10 222 1.6 6.4 0.00 0.00 0.00 84
20260509132620 10 193 0.0 1.6 0.00 0.00 0.00 84
20260509132119 10 191 0.0 0.0 0.00 0.00 0.00 85
20260509131614 10 206 0.0 1.6 0.00 0.00 0.00 85
20260509131112 10 202 0.0 0.0 0.00 0.00 0.00 85
20260509130607 10 196 0.0 1.6 0.00 0.00 0.00 87
20260509130104 10 194 0.0 1.6 0.00 0.00 0.00 87
20260509125600 9 186 0.0 0.0 0.00 0.00 0.00 87
20260509125057 10 170 0.0 0.0 0.00 0.00 0.00 88
20260509124553 10 190 0.0 0.0 0.00 0.00 0.00 88
20260509124051 9 190 0.0 0.0 0.00 0.00 0.00 88
20260509123549 9 191 0.0 0.0 0.00 0.00 0.00 89
20260509123045 9 192 0.0 0.0 0.00 0.00 0.00 88
20260509122541 9 192 0.0 0.0 0.00 0.00 0.00 88
20260509122038 9 193 0.0 0.0 0.00 0.00 0.00 88
20260509121534 9 159 0.0 1.6 0.00 0.00 0.00 87
20260509121032 9 166 0.0 0.0 0.00 0.00 0.00 87
20260509120531 9 179 0.0 1.6 0.00 0.00 0.00 87
20260509120029 9 159 0.0 1.6 0.00 0.00 0.00 87
20260509115525 9 164 0.0 0.0 0.00 0.00 0.00 88
20260509115023 9 164 0.0 0.0 0.00 0.00 0.00 89
20260509114521 9 164 0.0 0.0 0.00 0.00 0.00 90
20260509114020 9 164 0.0 0.0 0.00 0.00 0.00 90
20260509113517 9 164 0.0 0.0 0.00 0.00 0.00 90
20260509113015 9 164 0.0 0.0 0.00 0.00 0.00 90
20260509112511 9 153 0.0 0.0 0.00 0.00 0.00 89
20260509112008 9 152 0.0 1.6 0.00 0.00 0.00 88
20260509111505 9 193 0.0 1.6 0.00 0.00 0.00 88
20260509111002 9 198 0.0 0.0 0.00 0.00 0.00 88
20260509110459 9 198 0.0 0.0 0.00 0.00 0.00 87
20260509105956 9 198 0.0 0.0 0.00 0.00 0.00 87
20260509105455 9 200 0.0 1.6 0.00 0.00 0.00 85
20260509104951 9 170 0.0 0.0 0.00 0.00 0.00 86
20260509104448 9 171 0.0 0.0 0.00 0.00 0.00 85
20260509103946 9 161 0.0 0.0 0.00 0.00 0.00 85
20260509103443 9 195 1.6 4.8 0.00 0.00 0.00 84
20260509102941 9 195 1.6 4.8 0.00 0.00 0.00 83
20260509102438 9 246 4.8 6.4 0.00 0.00 0.00 83
20260509101934 9 207 4.8 9.7 0.00 0.00 0.00 82
20260509101431 10 263 3.2 9.7 0.00 0.00 0.00 81
20260509100928 10 183 3.2 4.8 0.00 0.00 0.00 80
20260509100425 10 200 1.6 6.4 0.00 0.00 0.00 78
20260509095922 10 145 1.6 9.7 0.00 0.00 0.00 76
20260509095419 10 194 1.6 1.6 0.00 0.00 0.00 73
20260509094916 10 197 0.0 6.4 0.00 0.00 0.00 72
20260509094412 10 282 3.2 16.1 0.00 0.00 0.00 71
20260509093910 11 196 4.8 11.3 0.00 0.00 0.00 70
20260509093407 11 199 4.8 6.4 0.00 0.00 0.00 69
20260509092906 11 227 3.2 14.5 0.00 0.00 0.00 68
20260509092403 11 231 4.8 6.4 0.00 0.00 0.00 68
20260509091901 10 215 3.2 6.4 0.00 0.00 0.00 68
20260509091358 10 191 0.0 0.0 0.00 0.00 0.00 70
20260509090855 10 157 0.0 1.6 0.00 0.00 0.00 72
20260509090352 10 160 0.0 0.0 0.00 0.00 0.00 69
20260509085850 10 163 0.0 0.0 0.00 0.00 0.00 68
20260509085347 11 180 0.0 1.6 0.00 0.00 0.00 68
20260509084843 11 203 0.0 4.8 0.00 0.00 0.00 67
20260509084340 11 171 0.0 1.6 0.00 0.00 0.00 66
20260509083838 11 236 3.2 4.8 0.00 0.00 0.00 65
20260509083334 11 175 4.8 6.4 0.00 0.00 0.00 64
20260509082831 11 231 0.0 9.7 0.00 0.00 0.00 64
20260509082327 11 260 4.8 11.3 0.00 0.00 0.00 64
20260509081825 11 250 4.8 9.7 0.00 0.00 0.00 63
20260509081322 11 207 3.2 4.8 0.00 0.00 0.00 63
20260509080820 11 268 8.0 9.7 0.00 0.00 0.00 63
20260509080318 11 248 3.2 6.4 0.00 0.00 0.00 64
20260509075816 11 217 1.6 1.6 0.00 0.00 0.00 64
20260509075313 11 233 8.0 14.5 0.00 0.00 0.00 63
20260509074809 11 197 0.0 0.0 0.00 0.00 0.00 70
20260509074307 11 192 1.6 4.8 0.00 0.00 0.00 63
20260509073803 11 247 3.2 6.4 0.00 0.00 0.00 64
20260509073300 10 195 0.0 6.4 0.00 0.00 0.00 65
20260509072756 10 246 6.4 17.7 0.00 0.00 0.00 65
20260509072253 9 230 3.2 4.8 0.00 0.00 0.00 70
20260509071750 8 199 0.0 1.6 0.00 0.00 0.00 74
20260509071247 8 180 0.0 1.6 0.00 0.00 0.00 78
20260509070744 8 175 0.0 0.0 0.00 0.00 0.00 81
20260509070240 8 175 0.0 0.0 0.00 0.00 0.00 81
20260509065737 7 175 0.0 0.0 0.00 0.00 0.00 80
20260509065233 7 174 0.0 0.0 0.00 0.00 0.00 81
20260509064729 8 185 0.0 0.0 0.00 0.00 0.00 78
20260509064227 8 185 0.0 0.0 0.00 0.00 0.00 77
20260509063724 8 186 0.0 0.0 0.00 0.00 0.00 76
20260509063220 8 186 0.0 0.0 0.00 0.00 0.00 75
20260509062718 8 186 0.0 0.0 0.00 0.00 0.00 74
20260509062215 8 186 0.0 0.0 0.00 0.00 0.00 75
20260509061712 8 194 0.0 0.0 0.00 0.00 0.00 75
20260509061210 8 194 0.0 0.0 0.00 0.00 0.00 74
20260509060707 9 194 0.0 0.0 0.00 0.00 0.00 73
20260509060203 9 194 0.0 0.0 0.00 0.00 0.00 71
20260509055659 9 194 0.0 0.0 0.00 0.00 0.00 71
20260509055155 9 194 0.0 0.0 0.00 0.00 0.00 69
20260509054651 10 199 0.0 0.0 0.00 0.00 0.00 69
20260509054149 9 199 0.0 0.0 0.00 0.00 0.00 71
20260509053647 9 188 0.0 0.0 0.00 0.00 0.00 72
20260509053144 9 188 0.0 0.0 0.00 0.00 0.00 75
20260509052642 10 188 0.0 0.0 0.00 0.00 0.00 74
20260509052139 10 188 0.0 0.0 0.00 0.00 0.00 72
20260509051637 10 188 0.0 0.0 0.00 0.00 0.00 67
20260509051134 10 188 0.0 0.0 0.00 0.00 0.00 67
20260509050631 10 188 0.0 0.0 0.00 0.00 0.00 69
20260509050127 10 188 0.0 1.6 0.00 0.00 0.00 68
20260509045625 10 160 0.0 0.0 0.00 0.00 0.00 70
20260509045121 10 160 0.0 0.0 0.00 0.00 0.00 68
20260509044619 10 160 0.0 0.0 0.00 0.00 0.00 68
20260509044116 10 163 0.0 0.0 0.00 0.00 0.00 70
20260509043612 10 163 0.0 0.0 0.00 0.00 0.00 71
20260509043108 10 162 0.0 0.0 0.00 0.00 0.00 71
20260509042605 10 162 0.0 0.0 0.00 0.00 0.00 71
20260509042100 10 162 0.0 0.0 0.00 0.00 0.00 68
20260509041558 10 162 0.0 0.0 0.00 0.00 0.00 66
20260509041055 10 162 0.0 0.0 0.00 0.00 0.00 66
20260509040553 10 162 0.0 0.0 0.00 0.00 0.00 66
20260509040050 10 162 0.0 0.0 0.00 0.00 0.00 67
20260509035547 10 169 0.0 0.0 0.00 0.00 0.00 68
20260509035043 10 169 0.0 0.0 0.00 0.00 0.00 68
20260509034542 10 169 0.0 0.0 0.00 0.00 0.00 67
20260509034038 11 174 0.0 0.0 0.00 0.00 0.00 67
20260509033536 11 174 0.0 0.0 0.00 0.00 0.00 68
20260509033032 11 190 0.0 0.0 0.00 0.00 0.00 68
20260509032529 11 190 0.0 0.0 0.00 0.00 0.00 66
20260509032027 11 190 0.0 0.0 0.00 0.00 0.00 61
20260509031524 11 191 0.0 0.0 0.00 0.00 0.00 61
20260509031021 11 191 0.0 0.0 0.00 0.00 0.00 58
20260509030519 11 174 0.0 0.0 0.00 0.00 0.00 59
20260509030016 11 174 0.0 0.0 0.00 0.00 0.00 60
20260509025512 11 174 0.0 0.0 0.00 0.00 0.00 62
20260509025007 11 174 0.0 0.0 0.00 0.00 0.00 62
20260509024503 11 174 0.0 0.0 0.00 0.00 0.00 60
20260509024000 11 174 0.0 0.0 0.00 0.00 0.00 61
20260509023458 11 178 1.6 1.6 0.00 0.00 0.00 60
20260509022954 11 160 0.0 0.0 0.00 0.00 0.00 63
20260509022451 11 160 0.0 0.0 0.00 0.00 0.00 64
20260509021944 11 160 0.0 0.0 0.00 0.00 0.00 63
20260509021440 11 160 0.0 0.0 0.00 0.00 0.00 62
20260509020937 11 160 0.0 0.0 0.00 0.00 0.00 62
20260509020436 11 156 0.0 0.0 0.00 0.00 0.00 62
20260509015932 11 156 0.0 0.0 0.00 0.00 0.00 62
20260509015431 11 156 0.0 0.0 0.00 0.00 0.00 61
20260509014927 12 156 0.0 0.0 0.00 0.00 0.00 61
20260509014424 12 155 0.0 0.0 0.00 0.00 0.00 61
20260509013921 12 155 0.0 0.0 0.00 0.00 0.00 59
20260509013418 12 155 0.0 0.0 0.00 0.00 0.00 58
20260509012913 12 169 0.0 0.0 0.00 0.00 0.00 58
20260509012410 12 169 0.0 0.0 0.00 0.00 0.00 58
20260509011907 12 164 0.0 0.0 0.00 0.00 0.00 57
20260509011405 12 164 0.0 0.0 0.00 0.00 0.00 58
20260509010903 12 160 0.0 0.0 0.00 0.00 0.00 58
20260509010400 12 160 0.0 0.0 0.00 0.00 0.00 57
20260509005856 12 160 0.0 0.0 0.00 0.00 0.00 57
20260509005354 12 160 0.0 0.0 0.00 0.00 0.00 57
20260509004849 12 160 0.0 0.0 0.00 0.00 0.00 58
20260509004345 12 160 0.0 0.0 0.00 0.00 0.00 58
20260509003843 13 162 0.0 0.0 0.00 0.00 0.00 56
20260509003341 13 174 0.0 0.0 0.00 0.00 0.00 53
20260509002837 13 208 1.6 4.8 0.00 0.00 0.00 52
20260509002335 13 204 3.2 4.8 0.00 0.00 0.00 51
20260509001833 13 237 3.2 4.8 0.00 0.00 0.00 51
20260509001328 13 205 1.6 4.8 0.00 0.00 0.00 51
20260509000826 13 217 6.4 6.4 0.00 0.00 0.00 51
20260509000325 13 164 3.2 6.4 0.00 0.00 0.00 50
20260508235820 13 225 1.6 6.4 0.00 0.00 0.00 51
20260508235317 13 222 1.6 4.8 0.00 0.00 0.00 50
20260508234814 14 255 3.2 6.4 0.00 0.00 0.00 50
20260508234310 14 209 4.8 11.3 0.00 0.00 0.00 49
20260508233809 14 193 3.2 6.4 0.00 0.00 0.00 50
20260508233308 15 204 0.0 9.7 0.00 0.00 0.00 49
20260508232804 15 248 4.8 9.7 0.00 0.00 0.00 47
20260508232300 15 235 9.7 14.5 0.00 0.00 0.00 47
20260508231759 15 263 8.0 14.5 0.00 0.00 0.00 47
20260508231255 15 218 4.8 14.5 0.00 0.00 0.00 47
20260508230752 15 252 6.4 14.5 0.00 0.00 0.00 47
20260508230248 15 289 14.5 16.1 0.00 0.00 0.00 46
20260508225746 15 259 9.7 17.7 0.00 0.00 0.00 46
20260508225242 15 277 6.4 9.7 0.00 0.00 0.00 47
20260508224740 15 193 8.0 14.5 0.00 0.00 0.00 47
20260508224237 15 239 14.5 17.7 0.00 0.00 0.00 46
20260508223735 16 278 9.7 14.5 0.00 0.00 0.00 46
20260508223232 16 243 4.8 6.4 0.00 0.00 0.00 47